Time,TemperatureF,DewpointF,PressureIn,WindDirection,WindDirectionDegrees,WindSpeedMPH,WindSpeedGustMPH,Humidity,HourlyPrecipIn,Conditions,Clouds,dailyrainin,SoftwareType,DateUTC
2013-06-27 00:00:00,69.1,46.3,0.00,WNW,298,0.0,0.0,44,0.00,,---,0.00,VWS V14.01,2013-06-27 04:00:00,
2013-06-27 00:02:00,69.1,46.3,0.00,WNW,298,0.0,0.0,44,0.00,,---,0.00,VWS V14.01,2013-06-27 04:02:00,
2013-06-27 00:03:00,69.1,46.3,0.00,WNW,298,0.0,0.0,44,0.00,,---,0.00,VWS V14.01,2013-06-27 04:03:00,
2013-06-27 00:06:00,69.1,46.3,0.00,WNW,298,0.0,0.0,44,0.00,,---,0.00,VWS V14.01,2013-06-27 04:06:00,
2013-06-27 00:07:00,69.1,46.3,0.00,WNW,298,0.0,0.0,44,0.00,,---,0.00,VWS V14.01,2013-06-27 04:07:00,
2013-06-27 00:08:00,68.9,46.1,0.00,WNW,298,0.0,0.0,44,0.00,,---,0.00,VWS V14.01,2013-06-27 04:08:00,
2013-06-27 00:13:00,68.9,46.1,0.00,WNW,298,0.0,0.0,44,0.00,,---,0.00,VWS V14.01,2013-06-27 04:13:00,
2013-06-27 00:18:00,68.7,46.0,0.00,WNW,298,0.0,0.0,44,0.00,,---,0.00,VWS V14.01,2013-06-27 04:18:00,
2013-06-27 00:24:00,68.7,46.0,0.00,WNW,298,0.0,0.0,44,0.00,,---,0.00,VWS V14.01,2013-06-27 04:24:00,
2013-06-27 00:30:00,68.5,45.8,0.00,WNW,298,0.0,0.0,44,0.00,,---,0.00,VWS V14.01,2013-06-27 04:30:00,
2013-06-27 00:35:00,68.5,46.4,0.00,WNW,298,0.0,0.0,45,0.00,,---,0.00,VWS V14.01,2013-06-27 04:35:00,
2013-06-27 00:41:00,68.5,46.4,0.00,WNW,298,0.0,0.0,45,0.00,,---,0.00,VWS V14.01,2013-06-27 04:41:00,
2013-06-27 00:46:00,68.5,46.4,0.00,WNW,298,0.0,0.0,45,0.00,,---,0.00,VWS V14.01,2013-06-27 04:46:00,
2013-06-27 00:52:00,68.7,47.7,0.00,WNW,298,0.0,0.0,47,0.00,,---,0.00,VWS V14.01,2013-06-27 04:52:00,
2013-06-27 00:58:00,68.5,48.1,0.00,WNW,298,0.0,0.0,48,0.00,,---,0.00,VWS V14.01,2013-06-27 04:58:00,
2013-06-27 01:03:00,68.5,47.5,0.00,WNW,298,0.0,0.0,47,0.00,,---,0.00,VWS V14.01,2013-06-27 05:03:00,
2013-06-27 01:08:00,68.4,47.9,0.00,WNW,298,0.0,0.0,48,0.00,,---,0.00,VWS V14.01,2013-06-27 05:08:00,
2013-06-27 01:13:00,68.4,47.4,0.00,WNW,298,0.0,0.0,47,0.00,,---,0.00,VWS V14.01,2013-06-27 05:13:00,
2013-06-27 01:20:00,68.4,47.9,0.00,WNW,298,0.0,0.0,48,0.00,,---,0.00,VWS V14.01,2013-06-27 05:20:00,
2013-06-27 01:25:00,68.2,47.8,0.00,WNW,298,0.0,0.0,48,0.00,,---,0.00,VWS V14.01,2013-06-27 05:25:00,
2013-06-27 01:30:00,68.2,47.8,0.00,WNW,298,0.0,0.0,48,0.00,,---,0.00,VWS V14.01,2013-06-27 05:30:00,
2013-06-27 01:36:00,68.0,47.6,0.00,WNW,298,0.0,0.0,48,0.00,,---,0.00,VWS V14.01,2013-06-27 05:36:00,
2013-06-27 01:42:00,68.0,47.6,0.00,WNW,298,0.0,0.0,48,0.00,,---,0.00,VWS V14.01,2013-06-27 05:42:00,
2013-06-27 01:48:00,67.8,48.0,0.00,WNW,298,0.0,0.0,49,0.00,,---,0.00,VWS V14.01,2013-06-27 05:48:00,
2013-06-27 01:53:00,67.8,48.0,0.00,WNW,298,0.0,0.0,49,0.00,,---,0.00,VWS V14.01,2013-06-27 05:53:00,
2013-06-27 01:59:00,67.8,48.0,0.00,WNW,298,0.0,0.0,49,0.00,,---,0.00,VWS V14.01,2013-06-27 05:59:00,
2013-06-27 02:05:00,67.8,48.5,0.00,WNW,298,0.0,0.0,50,0.00,,---,0.00,VWS V14.01,2013-06-27 06:05:00,
2013-06-27 02:10:00,67.6,48.9,0.00,WNW,298,0.0,0.0,51,0.00,,---,0.00,VWS V14.01,2013-06-27 06:10:00,
2013-06-27 02:16:00,67.5,48.7,0.00,WNW,298,0.0,0.0,51,0.00,,---,0.00,VWS V14.01,2013-06-27 06:16:00,
2013-06-27 02:22:00,67.3,48.5,0.00,WNW,298,0.0,0.0,51,0.00,,---,0.00,VWS V14.01,2013-06-27 06:22:00,
2013-06-27 02:27:00,67.3,49.1,0.00,WNW,298,0.0,0.0,52,0.00,,---,0.00,VWS V14.01,2013-06-27 06:27:00,
2013-06-27 02:33:00,67.3,48.5,0.00,WNW,298,0.0,0.0,51,0.00,,---,0.00,VWS V14.01,2013-06-27 06:33:00,
2013-06-27 02:38:00,67.3,49.1,0.00,WNW,298,0.0,0.0,52,0.00,,---,0.00,VWS V14.01,2013-06-27 06:38:00,
2013-06-27 02:43:00,67.3,49.1,0.00,WNW,298,0.0,0.0,52,0.00,,---,0.00,VWS V14.01,2013-06-27 06:43:00,
2013-06-27 02:48:00,67.3,49.1,0.00,WNW,298,0.0,0.0,52,0.00,,---,0.00,VWS V14.01,2013-06-27 06:48:00,
2013-06-27 02:54:00,67.1,48.9,0.00,WNW,298,0.0,0.0,52,0.00,,---,0.00,VWS V14.01,2013-06-27 06:54:00,
2013-06-27 02:59:00,66.9,48.7,0.00,WNW,298,0.0,0.0,52,0.00,,---,0.00,VWS V14.01,2013-06-27 06:59:00,
2013-06-27 03:05:00,66.9,48.7,0.00,WNW,298,0.0,0.0,52,0.00,,---,0.00,VWS V14.01,2013-06-27 07:05:00,
2013-06-27 03:10:00,66.7,48.6,0.00,WNW,298,0.0,0.0,52,0.00,,---,0.00,VWS V14.01,2013-06-27 07:10:00,
2013-06-27 03:15:00,66.7,49.1,0.00,WNW,298,0.0,0.0,53,0.00,,---,0.00,VWS V14.01,2013-06-27 07:15:00,
2013-06-27 03:21:00,66.7,49.1,0.00,WNW,298,0.0,0.0,53,0.00,,---,0.00,VWS V14.01,2013-06-27 07:21:00,
2013-06-27 03:26:00,66.7,49.1,0.00,WNW,298,0.0,0.0,53,0.00,,---,0.00,VWS V14.01,2013-06-27 07:26:00,
2013-06-27 03:32:00,66.7,49.1,0.00,WNW,298,0.0,0.0,53,0.00,,---,0.00,VWS V14.01,2013-06-27 07:32:00,
2013-06-27 03:37:00,66.7,49.6,0.00,WNW,298,0.0,0.0,54,0.00,,---,0.00,VWS V14.01,2013-06-27 07:37:00,
2013-06-27 03:42:00,66.7,49.1,0.00,WNW,298,0.0,0.0,53,0.00,,---,0.00,VWS V14.01,2013-06-27 07:42:00,
2013-06-27 03:48:00,66.6,48.9,0.00,WNW,298,0.0,0.0,53,0.00,,---,0.00,VWS V14.01,2013-06-27 07:48:00,
2013-06-27 03:53:00,66.6,49.4,0.00,WNW,298,0.0,0.0,54,0.00,,---,0.00,VWS V14.01,2013-06-27 07:53:00,
2013-06-27 03:58:00,66.7,50.6,0.00,WNW,298,0.0,0.0,56,0.00,,---,0.00,VWS V14.01,2013-06-27 07:58:00,
2013-06-27 04:04:00,66.7,50.1,0.00,WNW,298,0.0,0.0,55,0.00,,---,0.00,VWS V14.01,2013-06-27 08:04:00,
2013-06-27 04:09:00,66.6,49.9,0.00,WNW,298,0.0,0.0,55,0.00,,---,0.00,VWS V14.01,2013-06-27 08:09:00,
2013-06-27 04:14:00,66.4,49.7,0.00,WNW,298,0.0,0.0,55,0.00,,---,0.00,VWS V14.01,2013-06-27 08:14:00,
2013-06-27 04:19:00,66.4,50.2,0.00,WNW,298,0.0,0.0,56,0.00,,---,0.00,VWS V14.01,2013-06-27 08:19:00,
2013-06-27 04:25:00,66.4,50.2,0.00,WNW,298,0.0,0.0,56,0.00,,---,0.00,VWS V14.01,2013-06-27 08:25:00,
2013-06-27 04:30:00,66.4,50.7,0.00,WNW,298,0.0,0.0,57,0.00,,---,0.00,VWS V14.01,2013-06-27 08:30:00,
2013-06-27 04:36:00,66.4,50.7,0.00,WNW,298,0.0,0.0,57,0.00,,---,0.00,VWS V14.01,2013-06-27 08:36:00,
2013-06-27 04:41:00,66.4,51.2,0.00,WNW,298,0.0,0.0,58,0.00,,---,0.00,VWS V14.01,2013-06-27 08:41:00,
2013-06-27 04:46:00,66.2,51.0,0.00,WNW,298,0.0,0.0,58,0.00,,---,0.00,VWS V14.01,2013-06-27 08:46:00,
2013-06-27 04:51:00,66.2,50.5,0.00,WNW,298,0.0,0.0,57,0.00,,---,0.00,VWS V14.01,2013-06-27 08:51:00,
2013-06-27 04:57:00,66.0,50.8,0.00,WNW,298,0.0,0.0,58,0.00,,---,0.00,VWS V14.01,2013-06-27 08:57:00,
2013-06-27 05:02:00,66.0,51.3,0.00,WNW,298,0.0,0.0,59,0.00,,---,0.00,VWS V14.01,2013-06-27 09:02:00,
2013-06-27 05:08:00,66.0,51.3,0.00,WNW,298,0.0,0.0,59,0.00,,---,0.00,VWS V14.01,2013-06-27 09:08:00,
2013-06-27 05:13:00,66.0,51.3,0.00,WNW,298,0.0,0.0,59,0.00,,---,0.00,VWS V14.01,2013-06-27 09:13:00,
2013-06-27 05:18:00,65.8,50.7,0.00,WNW,298,0.0,0.0,58,0.00,,---,0.00,VWS V14.01,2013-06-27 09:18:00,
2013-06-27 05:24:00,65.8,51.1,0.00,WNW,298,0.0,0.0,59,0.00,,---,0.00,VWS V14.01,2013-06-27 09:24:00,
2013-06-27 05:29:00,65.7,51.0,0.00,WNW,298,0.0,0.0,59,0.00,,---,0.00,VWS V14.01,2013-06-27 09:29:00,
2013-06-27 05:35:00,65.7,51.0,0.00,WNW,298,0.0,0.0,59,0.00,,---,0.00,VWS V14.01,2013-06-27 09:35:00,
2013-06-27 05:40:00,65.7,51.0,0.00,WNW,298,0.0,0.0,59,0.00,,---,0.00,VWS V14.01,2013-06-27 09:40:00,
2013-06-27 05:46:00,65.7,51.0,0.00,WNW,298,0.0,0.0,59,0.00,,---,0.00,VWS V14.01,2013-06-27 09:46:00,
2013-06-27 05:51:00,65.7,51.0,0.00,WNW,298,0.0,0.0,59,0.00,,---,0.00,VWS V14.01,2013-06-27 09:51:00,
2013-06-27 05:56:00,65.7,51.0,0.00,WNW,298,0.0,0.0,59,0.00,,---,0.00,VWS V14.01,2013-06-27 09:56:00,
2013-06-27 06:01:00,65.7,51.4,0.00,WNW,298,0.0,0.0,60,0.00,,---,0.00,VWS V14.01,2013-06-27 10:01:00,
2013-06-27 06:07:00,65.8,51.6,0.00,WNW,298,0.0,0.0,60,0.00,,---,0.00,VWS V14.01,2013-06-27 10:07:00,
2013-06-27 06:12:00,66.0,52.2,0.00,WNW,298,0.0,0.0,61,0.00,,---,0.00,VWS V14.01,2013-06-27 10:12:00,
2013-06-27 06:18:00,66.0,52.2,0.00,WNW,298,0.0,0.0,61,0.00,,---,0.00,VWS V14.01,2013-06-27 10:18:00,
2013-06-27 06:23:00,66.2,51.9,0.00,WNW,298,0.0,0.0,60,0.00,,---,0.00,VWS V14.01,2013-06-27 10:23:00,
2013-06-27 06:28:00,66.4,52.5,0.00,WNW,298,0.0,0.0,61,0.00,,---,0.00,VWS V14.01,2013-06-27 10:28:00,
2013-06-27 06:33:00,66.4,52.1,0.00,WNW,298,0.0,0.0,60,0.00,,---,0.00,VWS V14.01,2013-06-27 10:33:00,
2013-06-27 06:39:00,66.6,52.7,0.00,WNW,298,0.0,0.0,61,0.00,,---,0.00,VWS V14.01,2013-06-27 10:39:00,
2013-06-27 06:44:00,66.6,52.7,0.00,WNW,298,0.0,0.0,61,0.00,,---,0.00,VWS V14.01,2013-06-27 10:44:00,
2013-06-27 06:49:00,66.7,52.9,0.00,WNW,298,0.0,0.0,61,0.00,,---,0.00,VWS V14.01,2013-06-27 10:49:00,
2013-06-27 06:54:00,66.9,53.0,0.00,WNW,298,0.0,0.0,61,0.00,,---,0.00,VWS V14.01,2013-06-27 10:54:00,
2013-06-27 07:00:00,67.1,53.2,0.00,WNW,298,0.0,0.0,61,0.00,,---,0.00,VWS V14.01,2013-06-27 11:00:00,
2013-06-27 07:05:00,67.3,53.8,0.00,WNW,298,0.0,0.0,62,0.00,,---,0.00,VWS V14.01,2013-06-27 11:05:00,
2013-06-27 07:10:00,67.5,54.0,0.00,WNW,298,0.0,0.0,62,0.00,,---,0.00,VWS V14.01,2013-06-27 11:10:00,
2013-06-27 07:13:00,67.6,54.2,0.00,WNW,298,0.0,0.0,62,0.00,,---,0.00,VWS V14.01,2013-06-27 11:13:00,
2013-06-27 07:18:00,68.2,55.1,0.00,WNW,298,0.0,0.0,63,0.00,,---,0.00,VWS V14.01,2013-06-27 11:18:00,
2013-06-27 07:23:00,68.5,55.0,0.00,WNW,298,0.0,0.0,62,0.00,,---,0.00,VWS V14.01,2013-06-27 11:23:00,
2013-06-27 07:28:00,69.1,55.5,0.00,WNW,298,0.0,0.0,62,0.00,,---,0.00,VWS V14.01,2013-06-27 11:28:00,
2013-06-27 07:34:00,69.8,56.2,0.00,WNW,298,0.0,0.0,62,0.00,,---,0.00,VWS V14.01,2013-06-27 11:34:00,
2013-06-27 07:39:00,70.3,56.7,0.00,WNW,298,0.0,0.0,62,0.00,,---,0.00,VWS V14.01,2013-06-27 11:39:00,
2013-06-27 07:44:00,70.7,57.1,0.00,WNW,298,0.0,0.0,62,0.00,,---,0.00,VWS V14.01,2013-06-27 11:44:00,
2013-06-27 07:49:00,71.2,58.5,0.00,WNW,298,0.0,0.0,64,0.00,,---,0.00,VWS V14.01,2013-06-27 11:49:00,
2013-06-27 07:54:00,71.6,57.5,0.00,WNW,298,0.0,0.0,61,0.00,,---,0.00,VWS V14.01,2013-06-27 11:54:00,
2013-06-27 07:59:00,72.0,57.8,0.00,WNW,298,0.0,0.0,61,0.00,,---,0.00,VWS V14.01,2013-06-27 11:59:00,
2013-06-27 08:04:00,72.5,58.3,0.00,WNW,298,0.0,0.0,61,0.00,,---,0.00,VWS V14.01,2013-06-27 12:04:00,
2013-06-27 08:10:00,72.9,57.7,0.00,WNW,298,0.0,0.0,59,0.00,,---,0.00,VWS V14.01,2013-06-27 12:10:00,
2013-06-27 08:15:00,73.2,58.0,0.00,WNW,298,0.0,0.0,59,0.00,,---,0.00,VWS V14.01,2013-06-27 12:15:00,
2013-06-27 08:20:00,73.8,57.6,0.00,WNW,298,0.0,0.0,57,0.00,,---,0.00,VWS V14.01,2013-06-27 12:20:00,
2013-06-27 08:26:00,74.5,57.8,0.00,WNW,298,0.0,0.0,56,0.00,,---,0.00,VWS V14.01,2013-06-27 12:26:00,
2013-06-27 08:31:00,75.2,57.4,0.00,WNW,298,0.0,0.0,54,0.00,,---,0.00,VWS V14.01,2013-06-27 12:31:00,
2013-06-27 08:37:00,75.7,56.9,0.00,WNW,298,0.0,0.0,52,0.00,,---,0.00,VWS V14.01,2013-06-27 12:37:00,
2013-06-27 08:43:00,76.3,56.3,0.00,WNW,298,0.0,0.0,50,0.00,,---,0.00,VWS V14.01,2013-06-27 12:43:00,
2013-06-27 08:48:00,76.8,56.2,0.00,WNW,298,0.0,0.0,49,0.00,,---,0.00,VWS V14.01,2013-06-27 12:48:00,
2013-06-27 08:53:00,77.4,55.6,0.00,WNW,298,0.0,0.0,47,0.00,,---,0.00,VWS V14.01,2013-06-27 12:53:00,
2013-06-27 08:58:00,77.9,55.5,0.00,WNW,298,0.0,0.0,46,0.00,,---,0.00,VWS V14.01,2013-06-27 12:58:00,
2013-06-27 09:04:00,78.4,54.1,0.00,WNW,298,0.0,0.0,43,0.00,,---,0.00,VWS V14.01,2013-06-27 13:04:00,
2013-06-27 09:09:00,78.6,51.6,0.00,WNW,298,0.0,0.0,39,0.00,,---,0.00,VWS V14.01,2013-06-27 13:09:00,
2013-06-27 09:15:00,78.6,51.6,0.00,WNW,298,0.0,0.0,39,0.00,,---,0.00,VWS V14.01,2013-06-27 13:15:00,
2013-06-27 09:21:00,78.6,49.5,0.00,WNW,298,0.0,0.0,36,0.00,,---,0.00,VWS V14.01,2013-06-27 13:21:00,
2013-06-27 09:26:00,79.2,46.8,0.00,WNW,298,0.0,0.0,32,0.00,,---,0.00,VWS V14.01,2013-06-27 13:26:00,
2013-06-27 09:32:00,79.5,47.1,0.00,WNW,298,0.0,0.0,32,0.00,,---,0.00,VWS V14.01,2013-06-27 13:32:00,
2013-06-27 09:37:00,80.2,47.7,0.00,SSW,196,0.0,0.0,32,0.00,,---,0.00,VWS V14.01,2013-06-27 13:37:00,
2013-06-27 09:42:00,81.0,48.4,0.00,SSW,196,0.0,0.0,32,0.00,,---,0.00,VWS V14.01,2013-06-27 13:42:00,
2013-06-27 09:47:00,81.5,47.1,0.00,West,262,3.1,3.6,30,0.00,,---,0.00,VWS V14.01,2013-06-27 13:47:00,
2013-06-27 09:53:00,83.8,48.2,0.00,South,177,0.0,2.7,29,0.00,,---,0.00,VWS V14.01,2013-06-27 13:53:00,
2013-06-27 09:58:00,86.9,50.8,0.00,South,177,0.0,2.7,29,0.00,,---,0.00,VWS V14.01,2013-06-27 13:58:00,
2013-06-27 10:03:00,87.3,51.2,0.00,SW,230,4.0,4.0,29,0.00,,---,0.00,VWS V14.01,2013-06-27 14:03:00,
2013-06-27 10:08:00,87.8,50.7,0.00,SW,216,2.2,2.2,28,0.00,,---,0.00,VWS V14.01,2013-06-27 14:08:00,
2013-06-27 10:13:00,88.2,51.0,0.00,SSE,168,3.1,3.1,28,0.00,,---,0.00,VWS V14.01,2013-06-27 14:13:00,
2013-06-27 10:19:00,88.2,51.0,0.00,South,186,0.0,2.7,28,0.00,,---,0.00,VWS V14.01,2013-06-27 14:19:00,
2013-06-27 10:25:00,87.4,51.3,0.00,SSW,198,0.0,0.0,29,0.00,,---,0.00,VWS V14.01,2013-06-27 14:25:00,
2013-06-27 10:31:00,86.2,50.2,0.00,South,175,2.7,3.1,29,0.00,,---,0.00,VWS V14.01,2013-06-27 14:31:00,
2013-06-27 10:37:00,85.1,49.3,0.00,SW,220,2.7,2.7,29,0.00,,---,0.00,VWS V14.01,2013-06-27 14:37:00,
2013-06-27 10:42:00,85.3,49.5,0.00,South,173,2.2,2.2,29,0.00,,---,0.00,VWS V14.01,2013-06-27 14:42:00,
2013-06-27 10:47:00,85.8,49.9,0.00,SSW,192,3.1,3.6,29,0.00,,---,0.00,VWS V14.01,2013-06-27 14:47:00,
2013-06-27 10:52:00,86.5,50.5,0.00,South,173,2.2,2.2,29,0.00,,---,0.00,VWS V14.01,2013-06-27 14:52:00,
2013-06-27 10:58:00,86.9,50.8,0.00,SSE,154,3.6,5.8,29,0.00,,---,0.00,VWS V14.01,2013-06-27 14:58:00,
2013-06-27 11:04:00,86.5,50.5,0.00,NNW,331,0.0,0.0,29,0.00,,---,0.00,VWS V14.01,2013-06-27 15:04:00,
2013-06-27 11:10:00,87.1,51.0,0.00,SSW,192,2.2,2.2,29,0.00,,---,0.00,VWS V14.01,2013-06-27 15:10:00,
2013-06-27 11:15:00,87.1,51.0,0.00,SSE,165,0.0,0.0,29,0.00,,---,0.00,VWS V14.01,2013-06-27 15:15:00,
2013-06-27 11:21:00,87.4,51.3,0.00,South,173,2.7,3.1,29,0.00,,---,0.00,VWS V14.01,2013-06-27 15:21:00,
2013-06-27 11:27:00,87.1,51.0,0.00,SSW,204,2.7,5.8,29,0.00,,---,0.00,VWS V14.01,2013-06-27 15:27:00,
2013-06-27 11:33:00,86.7,50.7,0.00,SSW,208,2.2,2.2,29,0.00,,---,0.00,VWS V14.01,2013-06-27 15:33:00,
2013-06-27 11:38:00,87.1,51.0,0.00,South,189,3.1,5.4,29,0.00,,---,0.00,VWS V14.01,2013-06-27 15:38:00,
2013-06-27 11:43:00,87.4,51.3,0.00,South,175,3.1,4.0,29,0.00,,---,0.00,VWS V14.01,2013-06-27 15:43:00,
2013-06-27 11:49:00,87.6,51.5,0.00,South,177,2.7,3.1,29,0.00,,---,0.00,VWS V14.01,2013-06-27 15:49:00,
2013-06-27 11:54:00,87.6,51.5,0.00,South,172,2.7,4.0,29,0.00,,---,0.00,VWS V14.01,2013-06-27 15:54:00,
2013-06-27 12:00:00,87.1,51.0,0.00,NW,312,2.2,2.7,29,0.00,,---,0.00,VWS V14.01,2013-06-27 16:00:00,
2013-06-27 12:05:00,87.8,50.7,0.00,South,190,3.1,3.1,28,0.00,,---,0.00,VWS V14.01,2013-06-27 16:05:00,
2013-06-27 12:10:00,88.5,51.3,0.00,SSE,160,5.8,5.8,28,0.00,,---,0.00,VWS V14.01,2013-06-27 16:10:00,
2013-06-27 12:15:00,89.2,51.9,0.00,WSW,254,3.1,4.9,28,0.00,,---,0.00,VWS V14.01,2013-06-27 16:15:00,
2013-06-27 12:21:00,88.9,51.6,0.00,SSW,201,2.7,3.1,28,0.00,,---,0.00,VWS V14.01,2013-06-27 16:21:00,
2013-06-27 12:27:00,88.2,51.0,0.00,South,169,0.0,2.7,28,0.00,,---,0.00,VWS V14.01,2013-06-27 16:27:00,
2013-06-27 12:32:00,88.0,50.8,0.00,SSE,166,3.1,3.6,28,0.00,,---,0.00,VWS V14.01,2013-06-27 16:32:00,
2013-06-27 12:38:00,88.2,51.0,0.00,SW,222,3.1,3.1,28,0.00,,---,0.00,VWS V14.01,2013-06-27 16:38:00,
2013-06-27 12:43:00,88.7,51.4,0.00,SSW,204,3.1,3.1,28,0.00,,---,0.00,VWS V14.01,2013-06-27 16:43:00,
2013-06-27 12:48:00,88.0,50.8,0.00,South,171,0.0,0.0,28,0.00,,---,0.00,VWS V14.01,2013-06-27 16:48:00,
2013-06-27 12:53:00,88.2,51.0,0.00,SE,126,2.2,3.1,28,0.00,,---,0.00,VWS V14.01,2013-06-27 16:53:00,
2013-06-27 12:59:00,89.2,51.9,0.00,SSE,163,3.6,3.6,28,0.00,,---,0.00,VWS V14.01,2013-06-27 16:59:00,
2013-06-27 13:04:00,89.8,52.4,0.00,SSE,168,2.7,4.0,28,0.00,,---,0.00,VWS V14.01,2013-06-27 17:04:00,
2013-06-27 13:10:00,90.0,52.5,0.00,SSE,168,0.0,2.2,28,0.00,,---,0.00,VWS V14.01,2013-06-27 17:10:00,
2013-06-27 13:16:00,88.5,51.3,0.00,SSW,197,0.0,4.0,28,0.00,,---,0.00,VWS V14.01,2013-06-27 17:16:00,
2013-06-27 13:21:00,86.9,50.8,0.00,SSW,208,0.0,0.0,29,0.00,,---,0.00,VWS V14.01,2013-06-27 17:21:00,
2013-06-27 13:26:00,87.6,51.5,0.00,SSE,158,0.0,2.2,29,0.00,,---,0.00,VWS V14.01,2013-06-27 17:26:00,
2013-06-27 13:32:00,89.1,51.8,0.00,SSE,151,2.7,2.7,28,0.00,,---,0.00,VWS V14.01,2013-06-27 17:32:00,
2013-06-27 13:38:00,88.9,51.6,0.00,South,178,0.0,3.1,28,0.00,,---,0.00,VWS V14.01,2013-06-27 17:38:00,
2013-06-27 13:43:00,88.5,51.3,0.00,SSW,200,2.2,3.1,28,0.00,,---,0.00,VWS V14.01,2013-06-27 17:43:00,
2013-06-27 13:49:00,88.3,51.1,0.00,SSE,153,0.0,2.7,28,0.00,,---,0.00,VWS V14.01,2013-06-27 17:49:00,
2013-06-27 13:54:00,88.2,51.0,0.00,SSE,150,5.8,5.8,28,0.00,,---,0.00,VWS V14.01,2013-06-27 17:54:00,
2013-06-27 13:59:00,87.6,51.5,0.00,South,178,2.7,3.1,29,0.00,,---,0.00,VWS V14.01,2013-06-27 17:59:00,
2013-06-27 14:04:00,86.9,50.8,0.00,SSE,151,2.7,2.7,29,0.00,,---,0.00,VWS V14.01,2013-06-27 18:04:00,
2013-06-27 14:09:00,86.4,50.4,0.00,ESE,110,0.0,0.0,29,0.00,,---,0.00,VWS V14.01,2013-06-27 18:09:00,
2013-06-27 14:14:00,86.4,50.4,0.00,South,172,0.0,0.0,29,0.00,,---,0.00,VWS V14.01,2013-06-27 18:14:00,
2013-06-27 14:19:00,85.1,49.3,0.00,WNW,283,0.0,4.0,29,0.00,,---,0.00,VWS V14.01,2013-06-27 18:19:00,
2013-06-27 14:24:00,83.7,48.1,0.00,South,180,0.0,2.2,29,0.00,,---,0.00,VWS V14.01,2013-06-27 18:24:00,
2013-06-27 14:30:00,82.6,47.1,0.00,SSE,168,0.0,2.7,29,0.00,,---,0.00,VWS V14.01,2013-06-27 18:30:00,
2013-06-27 14:35:00,81.7,47.3,0.00,SSE,168,0.0,0.0,30,0.00,,---,0.00,VWS V14.01,2013-06-27 18:35:00,
2013-06-27 14:40:00,81.1,46.8,0.00,South,172,0.0,0.0,30,0.00,,---,0.00,VWS V14.01,2013-06-27 18:40:00,
2013-06-27 14:45:00,80.6,46.3,0.00,South,172,0.0,0.0,30,0.00,,---,0.00,VWS V14.01,2013-06-27 18:45:00,
2013-06-27 14:50:00,80.6,46.3,0.00,SSE,164,0.0,0.0,30,0.00,,---,0.00,VWS V14.01,2013-06-27 18:50:00,
2013-06-27 14:55:00,80.6,46.3,0.00,SSE,164,0.0,0.0,30,0.00,,---,0.00,VWS V14.01,2013-06-27 18:55:00,
2013-06-27 15:01:00,80.6,46.3,0.00,SSE,164,0.0,0.0,30,0.00,,---,0.00,VWS V14.01,2013-06-27 19:01:00,
2013-06-27 15:07:00,79.9,45.7,0.00,South,179,0.0,0.0,30,0.00,,---,0.00,VWS V14.01,2013-06-27 19:07:00,
2013-06-27 15:12:00,79.9,45.7,0.00,South,179,0.0,0.0,30,0.00,,---,0.00,VWS V14.01,2013-06-27 19:12:00,
2013-06-27 15:18:00,79.9,45.7,0.00,WSW,249,0.0,0.0,30,0.00,,---,0.00,VWS V14.01,2013-06-27 19:18:00,
2013-06-27 15:24:00,79.3,45.2,0.00,West,261,0.0,0.0,30,0.00,,---,0.00,VWS V14.01,2013-06-27 19:24:00,
2013-06-27 15:29:00,79.0,44.9,0.00,West,261,0.0,0.0,30,0.00,,---,0.00,VWS V14.01,2013-06-27 19:29:00,
2013-06-27 15:34:00,78.6,45.5,0.00,West,261,0.0,0.0,31,0.00,,---,0.00,VWS V14.01,2013-06-27 19:34:00,
2013-06-27 15:39:00,77.4,44.4,0.00,West,273,0.0,2.2,31,0.00,,---,0.00,VWS V14.01,2013-06-27 19:39:00,
2013-06-27 15:45:00,74.3,42.6,0.00,WNW,301,0.0,0.0,32,0.00,,---,0.00,VWS V14.01,2013-06-27 19:45:00,
2013-06-27 15:51:00,72.5,41.8,0.00,WNW,294,0.0,0.0,33,0.00,,---,0.00,VWS V14.01,2013-06-27 19:51:00,
2013-06-27 15:56:00,71.8,41.9,0.00,WNW,294,0.0,0.0,34,0.00,,---,0.00,VWS V14.01,2013-06-27 19:56:00,
2013-06-27 16:02:00,71.8,43.4,0.00,WNW,294,0.0,0.0,36,0.00,,---,0.00,VWS V14.01,2013-06-27 20:02:00,
2013-06-27 16:08:00,72.5,45.5,0.00,WNW,294,0.0,0.0,38,0.00,,---,0.00,VWS V14.01,2013-06-27 20:08:00,
2013-06-27 16:13:00,73.0,46.6,0.00,WNW,294,0.0,0.0,39,0.00,,---,0.00,VWS V14.01,2013-06-27 20:13:00,
2013-06-27 16:18:00,73.2,49.4,0.00,WNW,294,0.0,0.0,43,0.00,,---,0.00,VWS V14.01,2013-06-27 20:18:00,
2013-06-27 16:24:00,73.6,49.1,0.00,WNW,293,0.0,0.0,42,0.00,,---,0.00,VWS V14.01,2013-06-27 20:24:00,
2013-06-27 16:29:00,73.9,50.7,0.00,WNW,293,0.0,0.0,44,0.00,,---,0.00,VWS V14.01,2013-06-27 20:29:00,
2013-06-27 16:34:00,74.5,51.8,0.00,WNW,293,0.0,0.0,45,0.00,,---,0.00,VWS V14.01,2013-06-27 20:34:00,
2013-06-27 16:42:00,75.4,52.0,0.00,NNE,15,0.0,0.0,44,0.00,,---,0.00,VWS V14.01,2013-06-27 20:42:00,
2013-06-27 16:48:00,75.4,52.0,0.00,NNE,15,0.0,0.0,44,0.00,,---,0.00,VWS V14.01,2013-06-27 20:48:00,
2013-06-27 16:53:00,75.4,51.3,0.00,NNE,15,0.0,0.0,43,0.00,,---,0.00,VWS V14.01,2013-06-27 20:53:00,
2013-06-27 16:58:00,75.7,51.7,0.00,NNE,15,0.0,0.0,43,0.00,,---,0.00,VWS V14.01,2013-06-27 20:58:00,
2013-06-27 17:04:00,75.9,51.2,0.00,SE,141,0.0,0.0,42,0.00,,---,0.00,VWS V14.01,2013-06-27 21:04:00,
2013-06-27 17:10:00,76.5,51.7,0.00,SE,141,0.0,0.0,42,0.00,,---,0.00,VWS V14.01,2013-06-27 21:10:00,
2013-06-27 17:15:00,76.3,50.9,0.00,SE,141,0.0,0.0,41,0.00,,---,0.00,VWS V14.01,2013-06-27 21:15:00,
2013-06-27 17:22:00,76.6,51.8,0.00,SE,141,0.0,0.0,42,0.00,,---,0.00,VWS V14.01,2013-06-27 21:22:00,
2013-06-27 17:28:00,76.6,51.2,0.00,SE,141,0.0,0.0,41,0.00,,---,0.00,VWS V14.01,2013-06-27 21:28:00,
2013-06-27 17:33:00,76.8,50.7,0.00,SSE,150,0.0,0.0,40,0.00,,---,0.00,VWS V14.01,2013-06-27 21:33:00,
2013-06-27 17:39:00,77.5,50.7,0.00,SSE,150,0.0,0.0,39,0.00,,---,0.00,VWS V14.01,2013-06-27 21:39:00,
2013-06-27 17:44:00,77.4,49.1,0.00,SSE,150,0.0,0.0,37,0.00,,---,0.00,VWS V14.01,2013-06-27 21:44:00,
2013-06-27 17:50:00,76.8,48.6,0.00,SSE,150,0.0,0.0,37,0.00,,---,0.00,VWS V14.01,2013-06-27 21:50:00,
2013-06-27 17:57:00,77.0,49.5,0.00,SSE,150,0.0,0.0,38,0.00,,---,0.00,VWS V14.01,2013-06-27 21:57:00,
2013-06-27 18:03:00,78.1,51.1,0.00,SSE,150,0.0,0.0,39,0.00,,---,0.00,VWS V14.01,2013-06-27 22:03:00,
2013-06-27 18:08:00,78.8,51.1,0.00,SSE,150,0.0,0.0,38,0.00,,---,0.00,VWS V14.01,2013-06-27 22:08:00,
2013-06-27 18:14:00,79.0,50.5,0.00,SSE,150,0.0,0.0,37,0.00,,---,0.00,VWS V14.01,2013-06-27 22:14:00,
2013-06-27 18:19:00,78.3,47.6,0.00,SSE,150,0.0,0.0,34,0.00,,---,0.00,VWS V14.01,2013-06-27 22:19:00,
2013-06-27 18:24:00,77.7,45.5,0.00,SSE,150,0.0,0.0,32,0.00,,---,0.00,VWS V14.01,2013-06-27 22:24:00,
2013-06-27 18:29:00,77.5,46.2,0.00,SSE,151,0.0,0.0,33,0.00,,---,0.00,VWS V14.01,2013-06-27 22:29:00,
2013-06-27 18:35:00,77.7,47.1,0.00,SSE,151,0.0,0.0,34,0.00,,---,0.00,VWS V14.01,2013-06-27 22:35:00,
2013-06-27 18:41:00,77.9,47.3,0.00,SSE,151,0.0,0.0,34,0.00,,---,0.00,VWS V14.01,2013-06-27 22:41:00,
2013-06-27 18:47:00,77.5,47.0,0.00,SSE,151,0.0,0.0,34,0.00,,---,0.00,VWS V14.01,2013-06-27 22:47:00,
2013-06-27 18:52:00,77.4,46.0,0.00,SSE,151,0.0,0.0,33,0.00,,---,0.00,VWS V14.01,2013-06-27 22:52:00,
2013-06-27 18:57:00,77.2,45.1,0.00,SSE,156,0.0,0.0,32,0.00,,---,0.00,VWS V14.01,2013-06-27 22:57:00,
2013-06-27 19:03:00,77.0,44.9,0.00,SSE,156,0.0,0.0,32,0.00,,---,0.00,VWS V14.01,2013-06-27 23:03:00,
2013-06-27 19:09:00,76.8,45.6,0.00,SSE,156,0.0,0.0,33,0.00,,---,0.00,VWS V14.01,2013-06-27 23:09:00,
2013-06-27 19:17:00,76.8,45.6,0.00,SSE,156,0.0,0.0,33,0.00,,---,0.00,VWS V14.01,2013-06-27 23:17:00,
2013-06-27 19:23:00,76.8,45.6,0.00,SSE,156,0.0,0.0,33,0.00,,---,0.00,VWS V14.01,2013-06-27 23:23:00,
2013-06-27 19:29:00,76.6,45.4,0.00,SSE,156,0.0,0.0,33,0.00,,---,0.00,VWS V14.01,2013-06-27 23:29:00,
2013-06-27 19:34:00,76.3,45.1,0.00,SSE,156,0.0,0.0,33,0.00,,---,0.00,VWS V14.01,2013-06-27 23:34:00,
2013-06-27 19:39:00,76.3,45.1,0.00,SSE,156,0.0,0.0,33,0.00,,---,0.00,VWS V14.01,2013-06-27 23:39:00,
2013-06-27 19:48:00,75.7,44.6,0.00,SSE,156,0.0,0.0,33,0.00,,---,0.00,VWS V14.01,2013-06-27 23:48:00,
2013-06-27 19:54:00,75.2,44.9,0.00,SSE,156,0.0,0.0,34,0.00,,---,0.00,VWS V14.01,2013-06-27 23:54:00,
2013-06-27 19:59:00,74.7,45.2,0.00,SSE,156,0.0,0.0,35,0.00,,---,0.00,VWS V14.01,2013-06-27 23:59:00,
2013-06-27 20:05:00,74.5,45.1,0.00,SSE,156,0.0,0.0,35,0.00,,---,0.00,VWS V14.01,2013-06-28 00:05:00,
2013-06-27 20:10:00,74.7,46.0,0.00,SSE,156,0.0,0.0,36,0.00,,---,0.00,VWS V14.01,2013-06-28 00:10:00,
2013-06-27 20:16:00,74.7,46.0,0.00,SSE,156,0.0,0.0,36,0.00,,---,0.00,VWS V14.01,2013-06-28 00:16:00,
2013-06-27 20:23:00,74.7,46.0,0.00,SSE,156,0.0,0.0,36,0.00,,---,0.00,VWS V14.01,2013-06-28 00:23:00,
2013-06-27 20:28:00,74.7,46.7,0.00,SSE,156,0.0,0.0,37,0.00,,---,0.00,VWS V14.01,2013-06-28 00:28:00,
2013-06-27 20:34:00,74.7,46.7,0.00,SSE,156,0.0,0.0,37,0.00,,---,0.00,VWS V14.01,2013-06-28 00:34:00,
2013-06-27 20:39:00,74.5,46.5,0.00,SSE,156,0.0,0.0,37,0.00,,---,0.00,VWS V14.01,2013-06-28 00:39:00,
2013-06-27 20:45:00,74.3,46.4,0.00,SSE,156,0.0,0.0,37,0.00,,---,0.00,VWS V14.01,2013-06-28 00:45:00,
2013-06-27 20:50:00,74.3,46.4,0.00,SSE,156,0.0,0.0,37,0.00,,---,0.00,VWS V14.01,2013-06-28 00:50:00,
2013-06-27 20:55:00,74.1,46.9,0.00,SSE,156,0.0,0.0,38,0.00,,---,0.00,VWS V14.01,2013-06-28 00:55:00,
2013-06-27 21:00:00,73.9,46.0,0.00,SSE,156,0.0,0.0,37,0.00,,---,0.00,VWS V14.01,2013-06-28 01:00:00,
2013-06-27 21:06:00,73.9,46.0,0.00,SSE,156,0.0,0.0,37,0.00,,---,0.00,VWS V14.01,2013-06-28 01:06:00,
2013-06-27 21:11:00,73.9,45.3,0.00,SSE,156,0.0,0.0,36,0.00,,---,0.00,VWS V14.01,2013-06-28 01:11:00,
2013-06-27 21:16:00,73.8,45.2,0.00,SSE,156,0.0,0.0,36,0.00,,---,0.00,VWS V14.01,2013-06-28 01:16:00,
2013-06-27 21:22:00,73.6,45.0,0.00,SSE,156,0.0,0.0,36,0.00,,---,0.00,VWS V14.01,2013-06-28 01:22:00,
2013-06-27 21:28:00,73.6,45.0,0.00,SSE,156,0.0,0.0,36,0.00,,---,0.00,VWS V14.01,2013-06-28 01:28:00,
2013-06-27 21:36:00,73.4,45.6,0.00,SSE,156,0.0,0.0,37,0.00,,---,0.00,VWS V14.01,2013-06-28 01:36:00,
2013-06-27 21:42:00,73.2,45.4,0.00,SSE,156,0.0,0.0,37,0.00,,---,0.00,VWS V14.01,2013-06-28 01:42:00,
2013-06-27 21:49:00,73.4,44.8,0.00,SSE,156,0.0,0.0,36,0.00,,---,0.00,VWS V14.01,2013-06-28 01:49:00,
2013-06-27 21:54:00,73.2,44.7,0.00,SSE,156,0.0,0.0,36,0.00,,---,0.00,VWS V14.01,2013-06-28 01:54:00,
2013-06-27 21:59:00,73.2,44.7,0.00,SSE,156,0.0,0.0,36,0.00,,---,0.00,VWS V14.01,2013-06-28 01:59:00,
2013-06-27 22:05:00,73.0,44.5,0.00,SSE,156,0.0,0.0,36,0.00,,---,0.00,VWS V14.01,2013-06-28 02:05:00,
2013-06-27 22:10:00,73.0,44.5,0.00,SSE,156,0.0,0.0,36,0.00,,---,0.00,VWS V14.01,2013-06-28 02:10:00,
2013-06-27 22:16:00,73.2,44.0,0.00,SSE,156,0.0,0.0,35,0.00,,---,0.00,VWS V14.01,2013-06-28 02:16:00,
2013-06-27 22:22:00,73.2,44.0,0.00,SSE,156,0.0,0.0,35,0.00,,---,0.00,VWS V14.01,2013-06-28 02:22:00,
2013-06-27 22:27:00,73.4,43.3,0.00,SSE,156,0.0,0.0,34,0.00,,---,0.00,VWS V14.01,2013-06-28 02:27:00,
2013-06-27 22:33:00,73.6,43.5,0.00,SSE,156,0.0,0.0,34,0.00,,---,0.00,VWS V14.01,2013-06-28 02:33:00,
2013-06-27 22:38:00,73.6,43.5,0.00,SSE,156,0.0,0.0,34,0.00,,---,0.00,VWS V14.01,2013-06-28 02:38:00,
2013-06-27 22:44:00,73.4,43.3,0.00,SSE,156,0.0,0.0,34,0.00,,---,0.00,VWS V14.01,2013-06-28 02:44:00,
2013-06-27 22:49:00,73.4,43.3,0.00,SSE,156,0.0,0.0,34,0.00,,---,0.00,VWS V14.01,2013-06-28 02:49:00,
2013-06-27 22:55:00,73.4,43.3,0.00,SSE,156,0.0,0.0,34,0.00,,---,0.00,VWS V14.01,2013-06-28 02:55:00,
2013-06-27 23:00:00,73.2,43.2,0.00,SSE,156,0.0,0.0,34,0.00,,---,0.00,VWS V14.01,2013-06-28 03:00:00,
2013-06-27 23:05:00,73.2,42.4,0.00,SE,142,0.0,0.0,33,0.00,,---,0.00,VWS V14.01,2013-06-28 03:05:00,
2013-06-27 23:11:00,73.0,43.0,0.00,SE,142,0.0,0.0,34,0.00,,---,0.00,VWS V14.01,2013-06-28 03:11:00,
2013-06-27 23:17:00,72.7,42.7,0.00,SE,142,0.0,0.0,34,0.00,,---,0.00,VWS V14.01,2013-06-28 03:17:00,
2013-06-27 23:22:00,72.5,42.6,0.00,SE,142,0.0,0.0,34,0.00,,---,0.00,VWS V14.01,2013-06-28 03:22:00,
2013-06-27 23:28:00,72.1,42.2,0.00,SE,142,0.0,0.0,34,0.00,,---,0.00,VWS V14.01,2013-06-28 03:28:00,
2013-06-27 23:35:00,72.0,42.1,0.00,SE,142,0.0,0.0,34,0.00,,---,0.00,VWS V14.01,2013-06-28 03:35:00,
2013-06-27 23:41:00,71.8,41.9,0.00,SE,142,0.0,0.0,34,0.00,,---,0.00,VWS V14.01,2013-06-28 03:41:00,
2013-06-27 23:49:00,71.6,41.8,0.00,SE,142,0.0,0.0,34,0.00,,---,0.00,VWS V14.01,2013-06-28 03:49:00,
2013-06-27 23:54:00,71.2,42.2,0.00,SE,142,0.0,0.0,35,0.00,,---,0.00,VWS V14.01,2013-06-28 03:54:00,
2013-06-27 23:59:00,71.1,42.0,0.00,SE,142,0.0,0.0,35,0.00,,---,0.00,VWS V14.01,2013-06-28 03:59:00,